| time (UTC) | temp F | wind direction | speed knots | gust knots | rain 1hr in | rain 24hr in | rain mn in | humidity % | barometer mb |
| 20260509221416 | 70 | 28 | 13.0 | 19.1 | 0.00 | 0.00 | 0.00 | 17 | 1020.5 |
| 20260509220416 | 69 | 36 | 6.1 | 10.4 | 0.00 | 0.00 | 0.00 | 19 | 1020.6 |
| 20260509215416 | 69 | 352 | 11.3 | 17.4 | 0.00 | 0.00 | 0.00 | 19 | 1020.8 |
| 20260509214416 | 69 | 11 | 5.2 | 10.4 | 0.00 | 0.00 | 0.00 | 19 | 1020.8 |
| 20260509213416 | 69 | 19 | 5.2 | 11.3 | 0.00 | 0.00 | 0.00 | 18 | 1020.8 |
| 20260509212416 | 69 | 349 | 6.1 | 13.0 | 0.00 | 0.00 | 0.00 | 19 | 1020.8 |
| 20260509211436 | 69 | 353 | 8.7 | 14.8 | 0.00 | 0.00 | 0.00 | 22 | 1020.9 |
| 20260509210416 | 69 | 3 | 8.7 | 12.2 | 0.00 | 0.00 | 0.00 | 22 | 1020.9 |
| 20260509205416 | 69 | 337 | 6.1 | 10.4 | 0.00 | 0.00 | 0.00 | 22 | 1021.0 |
| 20260509204436 | 69 | 5 | 6.1 | 14.8 | 0.00 | 0.00 | 0.00 | 22 | 1021.4 |
| 20260509203416 | 70 | 315 | 7.0 | 13.0 | 0.00 | 0.00 | 0.00 | 21 | 1021.3 |
| 20260509202416 | 70 | 331 | 8.7 | 13.9 | 0.00 | 0.00 | 0.00 | 22 | 1021.3 |
| 20260509201416 | 69 | 340 | 8.7 | 11.3 | 0.00 | 0.00 | 0.00 | 22 | 1021.3 |
| 20260509200416 | 68 | 344 | 6.1 | 9.6 | 0.00 | 0.00 | 0.00 | 23 | 1021.0 |
| 20260509195416 | 69 | 2 | 6.1 | 16.5 | 0.00 | 0.00 | 0.00 | 23 | 1021.5 |
| 20260509194416 | 68 | 350 | 8.7 | 15.6 | 0.00 | 0.00 | 0.00 | 22 | 1021.6 |
| 20260509193416 | 68 | 38 | 10.4 | 13.9 | 0.00 | 0.00 | 0.00 | 23 | 1021.6 |
| 20260509192416 | 67 | 351 | 10.4 | 13.9 | 0.00 | 0.00 | 0.00 | 23 | 1021.4 |
| 20260509191436 | 68 | 25 | 7.8 | 12.2 | 0.00 | 0.00 | 0.00 | 23 | 1021.8 |
| 20260509190436 | 67 | 24 | 8.7 | 12.2 | 0.00 | 0.00 | 0.00 | 23 | 1021.8 |
| 20260509185416 | 68 | 343 | 8.7 | 15.6 | 0.00 | 0.00 | 0.00 | 23 | 1021.9 |
| 20260509184416 | 66 | 346 | 8.7 | 15.6 | 0.00 | 0.00 | 0.00 | 23 | 1021.8 |
| 20260509183416 | 67 | 39 | 10.4 | 13.9 | 0.00 | 0.00 | 0.00 | 24 | 1021.8 |
| 20260509182416 | 66 | 347 | 11.3 | 14.8 | 0.00 | 0.00 | 0.00 | 24 | 1021.8 |
| 20260509181416 | 66 | 354 | 11.3 | 14.8 | 0.00 | 0.00 | 0.00 | 25 | 1021.6 |
| 20260509180416 | 66 | 353 | 11.3 | 17.4 | 0.00 | 0.00 | 0.00 | 25 | 1021.6 |
| 20260509175416 | 66 | 10 | 9.6 | 13.9 | 0.00 | 0.00 | 0.00 | 25 | 1021.6 |
| 20260509174416 | 66 | 357 | 13.9 | 20.9 | 0.00 | 0.00 | 0.00 | 24 | 1021.6 |
| 20260509173416 | 65 | 22 | 10.4 | 15.6 | 0.00 | 0.00 | 0.00 | 24 | 1021.6 |
| 20260509172456 | 65 | 354 | 7.8 | 12.2 | 0.00 | 0.00 | 0.00 | 25 | 1021.3 |
| 20260509171415 | 65 | 10 | 12.2 | 20.0 | 0.00 | 0.00 | 0.00 | 24 | 1021.5 |
| 20260509170415 | 64 | 27 | 6.1 | 14.8 | 0.00 | 0.00 | 0.00 | 26 | 1021.3 |
| 20260509165416 | 64 | 31 | 8.7 | 12.2 | 0.00 | 0.00 | 0.00 | 26 | 1021.3 |
| 20260509164416 | 64 | 349 | 11.3 | 16.5 | 0.00 | 0.00 | 0.00 | 25 | 1021.4 |
| 20260509163416 | 64 | 19 | 7.8 | 13.0 | 0.00 | 0.00 | 0.00 | 26 | 1021.5 |
| 20260509162415 | 64 | 25 | 11.3 | 15.6 | 0.00 | 0.00 | 0.00 | 26 | 1021.5 |
| 20260509161416 | 63 | 0 | 10.4 | 13.9 | 0.00 | 0.00 | 0.00 | 26 | 1021.6 |
| 20260509160415 | 63 | 30 | 8.7 | 18.2 | 0.00 | 0.00 | 0.00 | 25 | 1021.4 |
| 20260509155416 | 63 | 355 | 10.4 | 13.0 | 0.00 | 0.00 | 0.00 | 26 | 1021.5 |
| 20260509154415 | 63 | 349 | 7.8 | 11.3 | 0.00 | 0.00 | 0.00 | 26 | 1021.2 |
| 20260509153436 | 63 | 24 | 5.2 | 9.6 | 0.00 | 0.00 | 0.00 | 26 | 1021.2 |
| 20260509152415 | 63 | 14 | 7.0 | 12.2 | 0.00 | 0.00 | 0.00 | 26 | 1020.8 |
| 20260509151435 | 62 | 315 | 10.4 | 22.6 | 0.00 | 0.00 | 0.00 | 27 | 1021.0 |
| 20260509150456 | 62 | 19 | 13.0 | 20.0 | 0.00 | 0.00 | 0.00 | 27 | 1020.7 |
| 20260509145415 | 62 | 8 | 8.7 | 13.9 | 0.00 | 0.00 | 0.00 | 28 | 1020.7 |
| 20260509144435 | 62 | 8 | 8.7 | 17.4 | 0.00 | 0.00 | 0.00 | 28 | 1021.0 |
| 20260509143415 | 62 | 8 | 7.0 | 14.8 | 0.00 | 0.00 | 0.00 | 28 | 1021.0 |
| 20260509142415 | 61 | 14 | 9.6 | 13.0 | 0.00 | 0.00 | 0.00 | 28 | 1021.0 |
| 20260509141415 | 62 | 301 | 7.0 | 12.2 | 0.00 | 0.00 | 0.00 | 29 | 1021.7 |
| 20260509140415 | 61 | 2 | 7.0 | 13.0 | 0.00 | 0.00 | 0.00 | 29 | 1021.6 |
| 20260509135415 | 61 | 33 | 5.2 | 8.7 | 0.00 | 0.00 | 0.00 | 30 | 1021.7 |
| 20260509134415 | 60 | 317 | 6.1 | 11.3 | 0.00 | 0.00 | 0.00 | 30 | 1021.6 |
| 20260509133415 | 60 | 360 | 4.3 | 12.2 | 0.00 | 0.00 | 0.00 | 30 | 1021.5 |
| 20260509132415 | 60 | 337 | 8.7 | 12.2 | 0.00 | 0.00 | 0.00 | 30 | 1021.1 |
| 20260509131435 | 59 | 302 | 5.2 | 10.4 | 0.00 | 0.00 | 0.00 | 30 | 1021.0 |
| 20260509130415 | 59 | 322 | 7.8 | 12.2 | 0.00 | 0.00 | 0.00 | 31 | 1021.0 |
| 20260509125435 | 59 | 321 | 8.7 | 14.8 | 0.00 | 0.00 | 0.00 | 31 | 1020.7 |
| 20260509124415 | 59 | 306 | 9.6 | 15.6 | 0.00 | 0.00 | 0.00 | 31 | 1020.6 |
| 20260509123415 | 59 | 331 | 3.5 | 6.1 | 0.00 | 0.00 | 0.00 | 30 | 1020.5 |
| 20260509122435 | 59 | 334 | 6.1 | 13.9 | 0.00 | 0.00 | 0.00 | 30 | 1020.3 |
| 20260509121415 | 59 | 16 | 3.5 | 7.8 | 0.00 | 0.00 | 0.00 | 29 | 1020.2 |
| 20260509120415 | 59 | 347 | 7.0 | 11.3 | 0.00 | 0.00 | 0.00 | 29 | 1020.0 |
| 20260509115415 | 59 | 46 | 3.5 | 8.7 | 0.00 | 0.00 | 0.00 | 28 | 1019.9 |
| 20260509114415 | 60 | 96 | 4.3 | 7.8 | 0.00 | 0.00 | 0.00 | 28 | 1019.8 |
| 20260509113415 | 60 | 251 | 5.2 | 8.7 | 0.00 | 0.00 | 0.00 | 27 | 1019.7 |
| 20260509112415 | 60 | 239 | 1.7 | 7.8 | 0.00 | 0.00 | 0.00 | 27 | 1019.7 |
| 20260509111415 | 60 | 326 | 5.2 | 11.3 | 0.00 | 0.00 | 0.00 | 27 | 1019.6 |
| 20260509110435 | 61 | 350 | 7.8 | 15.6 | 0.00 | 0.00 | 0.00 | 27 | 1019.7 |
| 20260509105415 | 61 | 307 | 8.7 | 14.8 | 0.00 | 0.00 | 0.00 | 26 | 1019.8 |
| 20260509104417 | 61 | 321 | 6.1 | 13.9 | 0.00 | 0.00 | 0.00 | 26 | 1019.6 |
| 20260509103415 | 61 | 272 | 7.0 | 13.9 | 0.00 | 0.00 | 0.00 | 26 | 1019.4 |
| 20260509102417 | 62 | 293 | 4.3 | 14.8 | 0.00 | 0.00 | 0.00 | 26 | 1019.6 |
| 20260509101417 | 61 | 290 | 7.0 | 10.4 | 0.00 | 0.00 | 0.00 | 27 | 1019.1 |
| 20260509100437 | 62 | 308 | 8.7 | 19.1 | 0.00 | 0.00 | 0.00 | 27 | 1019.4 |
| 20260509095437 | 62 | 340 | 7.0 | 21.7 | 0.00 | 0.00 | 0.00 | 26 | 1019.2 |
| 20260509094417 | 63 | 347 | 7.0 | 14.8 | 0.00 | 0.00 | 0.00 | 26 | 1019.1 |
| 20260509093416 | 63 | 297 | 12.2 | 22.6 | 0.00 | 0.00 | 0.00 | 26 | 1019.0 |
| 20260509092417 | 63 | 325 | 16.5 | 31.3 | 0.00 | 0.00 | 0.00 | 27 | 1019.0 |
| 20260509091417 | 63 | 302 | 7.8 | 14.8 | 0.00 | 0.00 | 0.00 | 27 | 1018.8 |
| 20260509090416 | 64 | 322 | 9.6 | 15.6 | 0.00 | 0.00 | 0.00 | 27 | 1019.2 |
| 20260509085417 | 64 | 320 | 10.4 | 27.8 | 0.00 | 0.00 | 0.00 | 27 | 1019.2 |
| 20260509084416 | 64 | 347 | 7.0 | 14.8 | 0.00 | 0.00 | 0.00 | 27 | 1019.2 |
| 20260509083417 | 65 | 333 | 2.6 | 7.0 | 0.00 | 0.00 | 0.00 | 26 | 1018.8 |
| 20260509082416 | 65 | 13 | 5.2 | 11.3 | 0.00 | 0.00 | 0.00 | 26 | 1018.8 |
| 20260509081416 | 65 | 320 | 8.7 | 22.6 | 0.00 | 0.00 | 0.00 | 26 | 1018.8 |
| 20260509080416 | 65 | 339 | 4.3 | 13.9 | 0.00 | 0.00 | 0.00 | 26 | 1018.8 |
| 20260509075417 | 65 | 312 | 10.4 | 19.1 | 0.00 | 0.00 | 0.00 | 27 | 1018.9 |
| 20260509074417 | 65 | 299 | 9.6 | 16.5 | 0.00 | 0.00 | 0.00 | 28 | 1018.9 |
| 20260509073457 | 65 | 308 | 8.7 | 14.8 | 0.00 | 0.00 | 0.00 | 32 | 1018.9 |
| 20260509072417 | 66 | 247 | 3.5 | 7.0 | 0.00 | 0.00 | 0.00 | 29 | 1018.9 |
| 20260509071416 | 66 | 194 | 3.5 | 6.1 | 0.00 | 0.00 | 0.00 | 28 | 1018.6 |
| 20260509070416 | 67 | 246 | 3.5 | 6.1 | 0.00 | 0.00 | 0.00 | 28 | 1018.4 |
| 20260509065416 | 67 | 305 | 0.9 | 1.7 | 0.00 | 0.00 | 0.00 | 28 | 1018.3 |
| 20260509064416 | 67 | 314 | 2.6 | 8.7 | 0.00 | 0.00 | 0.00 | 29 | 1018.3 |
| 20260509063416 | 67 | 33 | 4.3 | 7.8 | 0.00 | 0.00 | 0.00 | 28 | 1018.3 |
| 20260509062416 | 67 | 298 | 1.7 | 5.2 | 0.00 | 0.00 | 0.00 | 27 | 1018.3 |
| 20260509061416 | 66 | 2 | 7.8 | 13.9 | 0.00 | 0.00 | 0.00 | 27 | 1018.2 |
| 20260509060416 | 64 | 309 | 9.6 | 13.0 | 0.00 | 0.00 | 0.00 | 30 | 1018.0 |
| 20260509055435 | 66 | 274 | 1.7 | 2.6 | 0.00 | 0.00 | 0.00 | 28 | 1018.1 |
| 20260509054415 | 67 | 274 | 2.6 | 5.2 | 0.00 | 0.00 | 0.00 | 27 | 1018.5 |
| 20260509053415 | 67 | 272 | 4.3 | 6.1 | 0.00 | 0.00 | 0.00 | 27 | 1018.5 |
| 20260509052416 | 67 | 287 | 4.3 | 6.1 | 0.00 | 0.00 | 0.00 | 27 | 1018.5 |
| 20260509051415 | 67 | 283 | 5.2 | 7.0 | 0.00 | 0.00 | 0.00 | 26 | 1018.3 |
| 20260509050415 | 67 | 278 | 4.3 | 6.1 | 0.00 | 0.00 | 0.00 | 26 | 1018.2 |
| 20260509045435 | 67 | 271 | 2.6 | 6.1 | 0.00 | 0.00 | 0.00 | 27 | 1018.3 |
| 20260509044415 | 67 | 264 | 2.6 | 3.5 | 0.00 | 0.00 | 0.00 | 27 | 1018.0 |
| 20260509043415 | 67 | 277 | 5.2 | 7.0 | 0.00 | 0.00 | 0.00 | 27 | 1017.9 |
| 20260509042415 | 67 | 319 | 4.3 | 6.1 | 0.00 | 0.00 | 0.00 | 26 | 1017.8 |
| 20260509041415 | 67 | 312 | 2.6 | 6.1 | 0.00 | 0.00 | 0.00 | 26 | 1017.3 |
| 20260509040415 | 67 | 314 | 4.3 | 7.0 | 0.00 | 0.00 | 0.00 | 26 | 1017.2 |
| 20260509035416 | 67 | 320 | 2.6 | 4.3 | 0.00 | 0.00 | 0.00 | 26 | 1017.3 |
| 20260509034435 | 67 | 320 | 0.9 | 1.7 | 0.00 | 0.00 | 0.00 | 27 | 1016.9 |
| 20260509033415 | 67 | 311 | 4.3 | 7.0 | 0.00 | 0.00 | 0.00 | 26 | 1016.8 |
| 20260509032435 | 66 | 289 | 4.3 | 7.0 | 0.00 | 0.00 | 0.00 | 27 | 1016.7 |
| 20260509031435 | 65 | 333 | 1.7 | 1.7 | 0.00 | 0.00 | 0.00 | 28 | 1016.2 |
| 20260509030415 | 66 | 333 | 2.6 | 3.5 | 0.00 | 0.00 | 0.00 | 28 | 1016.3 |
| 20260509025415 | 67 | 315 | 4.3 | 7.0 | 0.00 | 0.00 | 0.00 | 26 | 1016.4 |
| 20260509024415 | 68 | 312 | 7.8 | 9.6 | 0.00 | 0.00 | 0.00 | 27 | 1016.3 |
| 20260509023435 | 68 | 324 | 5.2 | 7.0 | 0.00 | 0.00 | 0.00 | 26 | 1016.3 |
| 20260509022415 | 68 | 309 | 5.2 | 7.0 | 0.00 | 0.00 | 0.00 | 26 | 1016.3 |
| 20260509021435 | 69 | 300 | 2.6 | 3.5 | 0.00 | 0.00 | 0.00 | 25 | 1015.8 |
| 20260509020415 | 71 | 298 | 1.7 | 3.5 | 0.00 | 0.00 | 0.00 | 24 | 1016.2 |
| 20260509015415 | 72 | 317 | 4.3 | 7.0 | 0.00 | 0.00 | 0.00 | 22 | 1016.5 |
| 20260509014415 | 73 | 308 | 3.5 | 7.8 | 0.00 | 0.00 | 0.00 | 20 | 1015.4 |
| 20260509013415 | 74 | 317 | 4.3 | 7.8 | 0.00 | 0.00 | 0.00 | 20 | 1015.8 |
| 20260509012415 | 74 | 334 | 6.1 | 8.7 | 0.00 | 0.00 | 0.00 | 20 | 1015.8 |
| 20260509011415 | 74 | 3 | 5.2 | 9.6 | 0.00 | 0.00 | 0.00 | 22 | 1016.2 |
| 20260509010435 | 75 | 326 | 6.1 | 10.4 | 0.00 | 0.00 | 0.00 | 22 | 1016.3 |
| 20260509005417 | 75 | 354 | 2.6 | 9.6 | 0.00 | 0.00 | 0.00 | 21 | 1016.3 |
| 20260509004417 | 74 | 28 | 10.4 | 13.0 | 0.00 | 0.00 | 0.00 | 22 | 1015.9 |
| 20260509003417 | 74 | 39 | 10.4 | 13.0 | 0.00 | 0.00 | 0.00 | 22 | 1016.3 |
| 20260509002417 | 74 | 359 | 7.0 | 9.6 | 0.00 | 0.00 | 0.00 | 22 | 1016.4 |
| 20260509001417 | 74 | 38 | 6.1 | 10.4 | 0.00 | 0.00 | 0.00 | 22 | 1016.0 |
| 20260509000418 | 74 | 6 | 6.1 | 11.3 | 0.00 | 0.00 | 0.00 | 22 | 1016.1 |
| 20260508235417 | 74 | 38 | 11.3 | 15.6 | 0.00 | 0.00 | 0.00 | 22 | 1016.2 |
| 20260508234417 | 74 | 36 | 10.4 | 15.6 | 0.00 | 0.00 | 0.00 | 22 | 1016.8 |
| 20260508233417 | 74 | 15 | 9.6 | 14.8 | 0.00 | 0.00 | 0.00 | 22 | 1016.8 |
| 20260508232417 | 74 | 42 | 9.6 | 13.9 | 0.00 | 0.00 | 0.00 | 23 | 1017.0 |
| 20260508231437 | 74 | 38 | 11.3 | 15.6 | 0.00 | 0.00 | 0.00 | 22 | 1016.7 |
| 20260508230417 | 73 | 45 | 9.6 | 13.0 | 0.00 | 0.00 | 0.00 | 23 | 1016.7 |
| 20260508225418 | 73 | 31 | 7.0 | 14.8 | 0.00 | 0.00 | 0.00 | 23 | 1016.9 |
| 20260508224417 | 73 | 12 | 7.8 | 17.4 | 0.00 | 0.00 | 0.00 | 24 | 1017.9 |
| 20260508223417 | 73 | 44 | 13.0 | 18.2 | 0.00 | 0.00 | 0.00 | 24 | 1018.1 |
| 20260508222417 | 73 | 35 | 7.8 | 16.5 | 0.00 | 0.00 | 0.00 | 24 | 1018.1 |